{"data":{"norad_id":40076,"intl_designator":"2014-037H","name":"TECHDEMOSAT-1 (TDS-1)","alt_names":[],"object_type":"PAYLOAD","status":"ACTIVE","operator":null,"country":"UK","launch_date":"2014-07-08","launch_site_code":"TYMSC","launch_vehicle":null,"mission":null,"orbit_class":"UNKNOWN","rcs_meters":0.5187,"size_class":null,"mass_kg":null,"dimensions":null,"purposes":["tech_demo"],"wikipedia_slug":null,"has_3d_model":false,"image_url":null,"decayed_at":null,"tle_current":{"epoch":"2026-09-19T19:21:47.159712Z","epoch_age_seconds":74336,"freshness":"FRESH","line1":"1 40076U 14037H   26262.80679583  .00005289  00000+0  29168-3 0  9998","line2":"2 40076  98.3887 264.5257 0004806 320.8514  39.2367 15.14474002662545","mean_motion":15.14474002,"eccentricity":0.0004806,"inclination_deg":98.3887,"raan_deg":264.5257,"arg_perigee_deg":320.8514,"mean_anomaly_deg":39.2367,"bstar":0.00029168,"rev_number":66254,"period_min":95.082516972781,"perigee_km":519.25942450186,"apogee_km":525.89238974819,"semimajor_km":6900.712907125,"source":"CELESTRAK","updated_at":"2026-09-20T09:00:47.445945Z"}}}